2023/05/14 00:00:00, 0.5,12.3
2023/05/14 00:10:00, 0.6,12.5
2023/05/14 00:20:00, 1.6,12.6
2023/05/14 00:30:00, 6.4,12.8
2023/05/14 00:40:00, 6.5,12.5
2023/05/14 00:50:00, 4.5,12.6
2023/05/14 01:00:00, 2.8,12.5
2023/05/14 01:10:00, 1.6,12.2
2023/05/14 01:20:00, 0.0,12.3
2023/05/14 01:30:00, 0.1,12.2
2023/05/14 01:40:00, 0.3,12.0
2023/05/14 01:50:00, 0.6,12.0
2023/05/14 02:00:00, 1.6,12.1
2023/05/14 02:10:00, 2.2,12.0
2023/05/14 02:20:00, 2.1,12.1
2023/05/14 02:30:00, 2.2,12.4
2023/05/14 02:40:00, 2.4,12.0
2023/05/14 02:50:00, 2.8,12.4
2023/05/14 03:00:00, 3.7,12.4
2023/05/14 03:10:00, 3.8,12.3
2023/05/14 03:20:00,---,12.6
2023/05/14 03:30:00,---,12.5
2023/05/14 03:40:00,27.9,12.8
2023/05/14 03:50:00, 8.7,13.2
2023/05/14 04:00:00,10.4,13.1
2023/05/14 04:10:00, 9.9,13.0
2023/05/14 04:20:00,10.3,12.7
2023/05/14 04:30:00,10.8,12.5
2023/05/14 04:40:00,11.6,12.4
2023/05/14 04:50:00,12.2,13.2
2023/05/14 05:00:00, 3.9,13.4
2023/05/14 05:10:00, 0.1,13.1
2023/05/14 05:20:00, 0.2,12.9
2023/05/14 05:30:00, 0.1,13.1
2023/05/14 05:40:00, 0.2,13.2
2023/05/14 05:50:00, 0.2,12.6
2023/05/14 06:00:00, 0.2,12.6
2023/05/14 06:10:00, 0.2,12.5
2023/05/14 06:20:00, 0.1,12.6
2023/05/14 06:30:00, 0.0,12.6
2023/05/14 06:40:00, 0.0,12.7
2023/05/14 06:50:00, 0.1,12.8
2023/05/14 07:00:00, 0.2,13.0
2023/05/14 07:10:00, 0.1,13.4
2023/05/14 07:20:00, 0.0,14.0
2023/05/14 07:30:00, 0.0,14.2
2023/05/14 07:40:00, 0.1,13.8
2023/05/14 07:50:00, 0.1,14.8
2023/05/14 08:00:00, 0.4,15.3
2023/05/14 08:10:00, 0.4,15.2
2023/05/14 08:20:00, 0.2,14.8
2023/05/14 08:30:00, 0.1,15.1
2023/05/14 08:40:00, 0.1,15.2
2023/05/14 08:50:00, 0.1,15.6
2023/05/14 09:00:00, 0.2,15.7
2023/05/14 09:10:00, 0.1,16.1
2023/05/14 09:20:00, 0.1,18.0
2023/05/14 09:30:00, 0.1,17.8
2023/05/14 09:40:00, 0.4,17.6
2023/05/14 09:50:00, 0.7,18.4
2023/05/14 10:00:00, 0.7,18.4
2023/05/14 10:10:00, 1.0,19.0
2023/05/14 10:20:00, 0.9,19.7
2023/05/14 10:30:00, 1.1,20.0
2023/05/14 10:40:00, 1.4,19.5
2023/05/14 10:50:00, 1.9,19.1
2023/05/14 11:00:00, 3.1,18.8
2023/05/14 11:10:00, 3.3,19.2
2023/05/14 11:20:00, 2.9,18.9
2023/05/14 11:30:00, 3.2,18.9
2023/05/14 11:40:00, 3.3,19.2
2023/05/14 11:50:00, 2.8,19.2
2023/05/14 12:00:00, 3.0,19.4
2023/05/14 12:10:00, 3.0,19.2
2023/05/14 12:20:00, 2.8,18.4
2023/05/14 12:30:00, 2.9,18.5
2023/05/14 12:40:00, 2.5,19.0
2023/05/14 12:50:00, 2.1,19.7
2023/05/14 13:00:00, 2.0,19.8
2023/05/14 13:10:00, 1.6,20.0
2023/05/14 13:20:00, 1.6,19.8
2023/05/14 13:30:00, 2.0,19.8
2023/05/14 13:40:00, 2.4,20.1
2023/05/14 13:50:00, 2.2,20.6
2023/05/14 14:00:00, 2.8,22.2
2023/05/14 14:10:00, 2.0,22.5
2023/05/14 14:20:00, 0.9,21.3
2023/05/14 14:30:00, 1.1,21.2
2023/05/14 14:40:00, 0.9,20.9
2023/05/14 14:50:00, 0.8,20.6
2023/05/14 15:00:00, 0.8,20.4
2023/05/14 15:10:00, 2.0,19.6
2023/05/14 15:20:00, 4.1,18.7
2023/05/14 15:30:00, 0.4,18.1
2023/05/14 15:40:00, 0.7,17.3
2023/05/14 15:50:00, 0.9,17.1
2023/05/14 16:00:00, 1.5,17.7
2023/05/14 16:10:00, 1.1,17.9
2023/05/14 16:20:00, 0.8,17.3
2023/05/14 16:30:00, 1.0,16.8
2023/05/14 16:40:00, 1.1,16.3
2023/05/14 16:50:00, 1.1,16.2
2023/05/14 17:00:00, 1.5,15.9
2023/05/14 17:10:00, 1.2,16.4
2023/05/14 17:20:00, 0.1,15.9
2023/05/14 17:30:00, 0.0,15.7
2023/05/14 17:40:00, 0.1,15.5
2023/05/14 17:50:00, 0.2,15.2
2023/05/14 18:00:00, 0.1,15.5
2023/05/14 18:10:00, 0.1,15.0
2023/05/14 18:20:00, 0.1,15.0
2023/05/14 18:30:00, 0.0,14.9
2023/05/14 18:40:00, 0.0,15.1
2023/05/14 18:50:00, 0.0,14.9
2023/05/14 19:00:00, 0.0,14.8
2023/05/14 19:10:00, 0.0,14.9
2023/05/14 19:20:00, 0.0,14.7
2023/05/14 19:30:00, 0.1,14.5
2023/05/14 19:40:00, 0.1,14.6
2023/05/14 19:50:00, 0.1,14.7
2023/05/14 20:00:00, 0.1,14.4
2023/05/14 20:10:00, 0.1,14.6
2023/05/14 20:20:00, 0.1,14.5
2023/05/14 20:30:00, 0.1,14.2
2023/05/14 20:40:00, 0.1,14.0
2023/05/14 20:50:00, 0.1,14.0
2023/05/14 21:00:00, 0.1,14.1
2023/05/14 21:10:00, 0.1,14.1
2023/05/14 21:20:00, 0.0,14.1
2023/05/14 21:30:00, 0.2,13.9
2023/05/14 21:40:00, 0.2,13.8
2023/05/14 21:50:00, 0.1,13.9
2023/05/14 22:00:00, 0.1,13.8
2023/05/14 22:10:00, 0.1,13.8
2023/05/14 22:20:00, 0.1,13.7
2023/05/14 22:30:00, 0.1,13.5
2023/05/14 22:40:00, 0.1,13.5
2023/05/14 22:50:00, 0.1,13.2
2023/05/14 23:00:00, 0.1,13.4
2023/05/14 23:10:00, 0.3,13.5
2023/05/14 23:20:00, 0.2,13.5
2023/05/14 23:30:00, 0.2,13.2
2023/05/14 23:40:00, 0.2,13.2
2023/05/14 23:50:00, 0.3,13.2
